CZ-2F DEB, 67719

Orbit data source: Space-Track

CZ-2F DEB, 67719 is space debris in LEO originally from a launch on Sat, 07 Feb 2026 UTC launched from the Jiuquan Satellite Launch Center, China (JSC). Debris objects in space refer to the collection of defunct objects orbiting the Earth. Examples of debris include non-operational satellites, rocket bodies, and fragments generated from explosions, collisions, or faulty payload assembly.

Loading next visibility...
Identifier
67719, 2026-024F
Orbit
LEO
Country
Flag of CNCN / PRC
Related business
Manufacturer
CALT?
Mission
Spacecraft
Bus & Motor
Unknown
Mass
1 kg wet, 1 kg dry
Launch date (UTC)
2026-02-07 (2 months ago)
Launch vehicle
Unknown
Launch site
Jiuquan Satellite Launch Center, China (JSC)
Object type
Payload
Rocket body
Debris
Shape & HBR
Unknown shape, 1.1 m
Radar Cross Section
RCS unknown

Expand to show TLE details & history
Last TLE update: 8 hours ago

TLE from 8 hours ago
0 CZ-2F DEB
1 67719U 26024F   26100.52158513  .00157840  00000-0  31792-2 0  9992
2 67719  49.7862 227.4484 0266308  40.8276 321.2294 15.15694858  9050
Epoch: 2026-04-10T12:31Z
TLE epoch observation values (Epoch: 2026-04-10T12:31:04.955Z)
Latitude
Longitude
-159.07629°
Altitude
378.181 km
Speed
7.762 km/s
True Right ascension
15h 09m 47s
True Declination
0° 00' 00"
Sunlit
Object was in full shadow at epoch
Visualization orbit readout
Latitude
Unknown
Longitude
Unknown
Altitude
Unknown
Speed
Unknown
Apparent Right ascension
Unknown
Apparent Declination
Unknown
Sunlit
N/A
Visualization observer readout
Local Sidereal Time
02:36:40
Azimuth
Unknown
Elevation
Unknown
Doppler factor
Unknown
Orbital elements
Apogee altitude
703.369 km
Perigee altitude
335.981 km
Semi-major axis
6,897.812 km
Eccentricity
0.02663
Inclination
49.7862°
RAAN
227.4484°
Arg. of periapsis
40.8276°
True anomaly
319.26796°
Mean anomaly
321.2294°
Eccentric anomaly
320.2538°
Mean motion
3.78858 °/min
Orbital period
95.02 mins
BSTAR
0.0031792
Loading maneuver chart data...
Computing Atmospheric mass density...
Loading historical data...
Loading historical data...
Loading historical data...
Loading historical data...
Loading historical data...
Loading historical data...
Loading historical data...

Documentation

Showing up to 5 results
|